{"data":{"norad_id":61912,"intl_designator":"2024-207A","name":"STARLINK-32303","alt_names":[],"object_type":"PAYLOAD","status":"ACTIVE","operator":null,"country":"US","launch_date":"2024-11-11","launch_site_code":"AFETR","launch_vehicle":null,"mission":null,"orbit_class":"UNKNOWN","rcs_meters":null,"size_class":null,"mass_kg":null,"dimensions":null,"purposes":["comms"],"wikipedia_slug":null,"has_3d_model":false,"image_url":null,"decayed_at":null,"tle_current":{"epoch":"2026-09-21T07:58:50.782944Z","epoch_age_seconds":116987,"freshness":"FRESH","line1":"1 61912U 24207A   26264.33253221  .00006013  00000+0  22787-3 0  9993","line2":"2 61912  42.9997 256.8118 0001211 279.0008  81.0706 15.27576665105236","mean_motion":15.27576665,"eccentricity":0.0001211,"inclination_deg":42.9997,"raan_deg":256.8118,"arg_perigee_deg":279.0008,"mean_anomaly_deg":81.0706,"bstar":0.00022787,"rev_number":10523,"period_min":94.266954516486,"perigee_km":482.22819140202,"apogee_km":483.88997309314,"semimajor_km":6861.1960822476,"source":"CELESTRAK","updated_at":"2026-09-22T09:00:49.448676Z"}}}